Location: Diguira
(13.1838°N, 4.9109°W)
Time: 17:14:29
(UTC+00:00)

Cosmos 1378 - Pass Details

Date: 18 September 2020
Orbit: 492 x 501 km, 82.5° (Epoch: 24 October)

Event Time Altitude Azimuth Distance (km) Brightness Sun altitude
Rises 18:28:56 0° 7° (N) 2,563 6.7 -3.4°
Reaches altitude 10° 18:31:09 10° 16° (NNE) 1,682 5.7 -4.0°
Maximum altitude 18:34:34 36° 85° (E) 787 3.6 -4.8°
Drops below altitude 10° 18:38:00 10° 153° (SSE) 1,686 5.5 -5.6°
Sets 18:40:13 0° 162° (SSE) 2,569 6.5 -6.2°
